Tracking 30116 objects as of 10-Feb-2025
HD Live streaming from Space Station
objects crossing your sky now

STARLINK-32845

Track STARLINK-32845 now!
10-day predictions
STARLINK-32845 is classified as:


NORAD ID: 62815
Int'l Code: 2025-018K
Perigee: 352.7 km
Apogee: 354.4 km
Inclination: 53.2 °
Period: 91.5 minutes
Semi major axis: 6724 km
RCS: Unknown
Launch date: January 24, 2025
Source: United States (US)
Launch site: AIR FORCE WESTERN TEST RANGE (AFWTR)
Your satellite tracking list
Your tracking list is empty




NASA's NSSDC Master Catalog

Two Line Element Set (TLE):
1 62815U 25018K   25041.58335648 -.01208725  00000-0 -92452-2 0  9993
2 62815  53.1572 339.8470 0001272 126.4510  69.1389 15.74370031  3675
Source of the keplerian elements: AFSPC